カタリナ彗星

300P/Catalina (2023)

English version
Home page
Updated on March 15, 2022

---------------------------------------------------------------------

・ プロフィール

・ 軌道要素

Epoch 2022 Jan. 21.0 TT = JDT 2459600.5                                         
T 2023 Apr. 11.06413 TT                                 Rudenko                 
q   0.8321376            (2000.0)            P               Q                  
n   0.22219321     Peri.  222.91783     +0.74633363     +0.65825903             
a   2.6997001      Node    95.64258     -0.58073705     +0.71627225             
e   0.6917667      Incl.    5.67422     -0.32516240     +0.23162278             
P   4.44                                                                        
From 777 observations 2005 May 6-2022 Mar. 7, mean residual 0".7.               
     Nongravitational parameters A1 = +0.06, A2 = -0.0080.                      

・ 星図

・ 光度変化

        H = 17.5  G = 0.15                [   ,-80]  (              〜2023年 1月21日)
        m1 = 16.0 + 5 logΔ + 23.0 log r  [-80, 76]  (2023年 1月21日〜2023年 6月26日)
        H = 17.5  G = 0.15                [ 76,   ]  (2023年 6月26日〜              )

---------------------------------------------------------------------

軌道要素はM.P.E.C. 2022-E133に掲載されたものです。
星図はステラナビゲータ Ver.10 (アストロアーツ) で作成したものです。
光度グラフはComet for Windowsで作成したものです。

---------------------------------------------------------------------

Copyright(C) Seiichi Yoshida (comet@aerith.net). All rights reserved.